This demonstration page uses our WeatherBlox Daily Observations layout. Learn more.

Left ArrowRight Arrow

39.01783, -85.05884

Hourly Observations for August 24, 2016

Temp ( °F °C ) Dew Point ( °F °C ) Humidity (%) Winds ( mph kmh ) Pressure ( in mb ) Visibility ( mi km ) Precip ( " mm )
12:52 am 00:52 Mostly Cloudy 68 20 61 16.1 78 78 S 3 6 30.18 1022 10 16 N/A
1:52 am 01:52 Cloudy 66 18.9 63 17.2 90 90 S 5 7 30.18 1022 10 16 N/A
2:52 am 02:52 Cloudy 70 21.1 62 16.7 76 76 S 9 15 30.16 1022 10 16 N/A
3:52 am 03:52 Mostly Cloudy 68 20 62 16.7 81 81 S 3 6 30.15 1021 10 16 N/A
4:52 am 04:52 Partly Cloudy 68 20 62 16.7 81 81 SSW 3 6 30.17 1022 10 16 N/A
5:52 am 05:52 Cloudy 67 19.4 63 17.2 87 87 S 5 7 30.16 1021 10 16 N/A
6:52 am 06:52 Mostly Cloudy 67 19.4 62 16.7 84 84 S 7 11 30.16 1021 10 16 N/A
7:52 am 07:52 Cloudy 68 20 64 17.8 87 87 S 6 9 30.18 1022 10 16 N/A
8:52 am 08:52 Cloudy 71 21.7 65 18.3 81 81 S 7 11 30.18 1022 10 16 N/A
9:52 am 09:52 Cloudy 74 23.3 67 19.4 79 79 S 7 11 30.17 1022 10 16 N/A
10:52 am 10:52 Mostly Cloudy 77 25 69 20.6 77 77 S 10 17 30.17 1022 10 16 N/A
11:52 am 11:52 Mostly Cloudy 79 26.1 71 21.7 77 77 SW 9 15 30.16 1021 10 16 N/A
12:52 pm 12:52 Mostly Cloudy 83 28.3 73 22.8 72 72 SW 9 15 30.14 1021 10 16 N/A
1:52 pm 13:52 Cloudy 83 28.3 73 22.8 72 72 SSW 13 20 30.11 1020 10 16 N/A
2:52 pm 14:52 Mostly Cloudy 85 29.4 74 23.3 70 70 SSW 7 11 30.09 1019 10 16 N/A
3:52 pm 15:52 Mostly Cloudy 85 29.4 74 23.3 70 70 SSW 14 22 30.07 1018 10 16 N/A
4:52 pm 16:52 Cloudy 86 30 73 22.8 65 65 SSW 9 15 30.06 1018 10 16 N/A
5:52 pm 17:52 Cloudy 84 28.9 73 22.8 70 70 SSW 9 15 30.05 1018 10 16 N/A
6:52 pm 18:52 Mostly Cloudy 83 28.3 73 22.8 72 72 SSW 7 11 30.05 1018 10 16 N/A
7:52 pm 19:52 Cloudy 83 28.3 73 22.8 72 72 SSW 8 13 30.04 1017 10 16 N/A
8:52 pm 20:52 Cloudy 82 27.8 73 22.8 74 74 SSW 10 17 30.04 1017 10 16 N/A
9:52 pm 21:52 Cloudy 81 27.2 73 22.8 77 77 SSW 8 13 30.04 1017 10 16 N/A
10:52 pm 22:52 Partly Cloudy 80 26.7 73 22.8 79 79 SSW 8 13 30.04 1017 10 16 N/A
11:52 pm 23:52 Partly Cloudy 80 26.7 73 22.8 79 79 SSW 10 17 30.04 1017 10 16 N/A

Powered by AerisWeather